[[[{"header":{"parameterUnit":"kt","parameterCategory":2,"dx":1,"dy":1,"la1":30.253999710083008,"la2":30.299108505249023,"lo1":-89.0895004272461,"lo2":-89.04439544677734,"nx":28,"ny":28,"refTime":"2022-09-27T21:00:00:Z","depth":0,"parameterNumber":1,"parameterNumberName":"U-component_of_WINDS"},"data":[-3.6493,-3.6552,-3.654,-3.6601,-3.66,-3.664,-3.665,-3.6662,-3.6668,-3.6714,-3.6738,-3.6731,-3.6733,-3.6759,-3.6784,-3.678,-3.6792,-3.6821,-3.6812,-3.6693,-3.6676,-3.666,-3.6645,-3.6824,-3.6824,-3.6937,-3.6938,-3.6939,-3.6405,-3.6405,-3.6434,-3.6454,-3.6478,-3.6443,-3.6456,-3.6479,-3.6515,-3.6524,-3.6547,-3.6586,-3.6615,-3.6607,-3.6633,-3.666,-3.6645,-3.6668,-3.6666,-3.6667,-3.6539,-3.6524,-3.668,-3.668,-3.6679,-3.6679,-3.6679,-3.6679,-3.6241,-3.6277,-3.6282,-3.6313,-3.632,-3.6334,-3.6366,-3.6357,-3.6385,-3.6412,-3.6392,-3.6433,-3.6439,-3.6465,-3.6471,-3.6502,-3.6475,-3.6496,-3.6502,-3.6508,-3.6516,-3.6354,-3.6506,-3.6506,-3.6505,-3.6505,-3.6505,0,-3.6118,-3.6105,-3.6133,-3.6156,-3.6178,-3.6196,-3.621,-3.6229,-3.6199,-3.6224,-3.6258,-3.6276,-3.6311,-3.6343,-3.6365,-3.6366,-3.6333,-3.6328,-3.6343,-3.6354,-3.636,-3.6357,-3.615,-3.6324,-3.6323,-3.6321,-3.6321,-3.632,-3.5952,-3.5995,-3.5995,-3.6016,-3.6021,-3.6055,-3.6073,-3.6043,-3.6063,-3.6076,-3.6109,-3.614,-3.6163,-3.6221,-3.6211,-3.6237,-3.6222,-3.6289,-3.6226,-3.6233,-3.6223,-3.6221,-3.6225,-3.6303,-3.6305,-3.6307,-3.6308,0,-3.586,-3.584,-3.5904,-3.59,-3.59,-3.5947,-3.5943,-3.5977,-3.5966,-3.6012,-3.6021,-3.6003,-3.6038,-3.6017,-3.6052,-3.604,-3.6117,-3.61,-3.6114,-3.611,-3.6169,-3.6164,-3.6363,-3.6387,-3.6201,-3.6203,-3.6205,0,-3.5711,-3.577,-3.5737,-3.5775,-3.5838,-3.5807,-3.5871,-3.5867,-3.5872,-3.5908,-3.5866,-3.5901,-3.5869,-3.59,-3.5883,-3.5941,-3.5948,-3.5943,-3.5937,-3.5947,-3.5948,-3.5958,-3.595,-3.5924,-3.5923,-3.5922,-3.5921,0,-3.557,-3.5621,-3.5682,-3.5691,-3.5693,-3.5722,-3.5724,-3.573,-3.5748,-3.5768,-3.5779,-3.5805,-3.5819,-3.584,-3.5817,-3.5775,-3.5888,-3.5825,-3.5883,-3.5884,-3.591,-3.5909,-3.6089,-3.592,-3.5919,-3.5919,-3.5919,0,-3.5447,-3.5468,-3.556,-3.556,-3.5575,-3.5616,-3.5639,-3.5669,-3.5678,-3.567,-3.5685,-3.5655,-3.5705,-3.5644,-3.5711,-3.5662,-3.5678,-3.5678,-3.5681,-3.5686,-3.5618,-3.5723,-3.5897,-3.5914,-3.5688,-3.5686,-3.5684,0,-3.529,-3.5378,-3.5352,-3.5441,-3.5478,-3.5429,-3.5473,-3.5483,-3.5475,-3.5506,-3.5497,-3.5533,-3.5483,-3.5491,-3.5527,-3.552,-3.5584,-3.5511,-3.5556,-3.5558,-3.5555,-3.5714,-3.5746,-3.5861,-3.5659,-3.5662,-3.5664,0,-3.5167,-3.5169,-3.5187,-3.5196,-3.5204,-3.5235,-3.5286,-3.5315,-3.5337,-3.5352,-3.5394,-3.5444,-3.5408,-3.5422,-3.5401,-3.544,-3.554,-3.5397,-3.5396,-3.5424,-3.5645,-3.5674,-3.5694,-3.5517,-3.552,-3.5522,-3.5644,0,-3.4987,-3.5028,-3.5075,-3.5097,-3.5118,-3.5172,-3.515,-3.5175,-3.5152,-3.5143,-3.5205,-3.5208,-3.5238,-3.5254,-3.5233,-3.5328,-3.5309,-3.5271,-3.5211,-3.5315,-3.5355,-3.5371,-3.5154,-3.5152,-3.515,-3.5149,0,0,-3.4842,-3.4902,-3.4872,-3.4921,-3.4937,-3.4885,-3.4946,-3.4955,-3.4977,-3.4989,-3.4955,-3.5026,-3.5031,-3.5108,-3.5138,-3.5151,-3.5166,-3.5131,-3.5266,-3.5279,-3.5291,-3.5334,-3.5351,-3.5146,-3.5145,-3.5145,-3.5144,0,-3.4772,-3.4778,-3.4837,-3.4846,-3.4858,-3.4845,-3.486,-3.4863,-3.486,-3.492,-3.4878,-3.4912,-3.497,-3.4981,-3.4994,-3.512,-3.5087,-3.5131,-3.5206,-3.525,-3.5266,-3.5279,-3.5324,-3.5341,-3.514,-3.5141,-3.5141,0,-3.4647,-3.4649,-3.4676,-3.471,-3.4717,-3.4758,-3.4689,-3.4735,-3.4765,-3.4707,-3.4768,-3.4768,-3.478,-3.4856,-3.4889,-3.486,-3.5016,-3.4963,-3.4972,-3.4976,-3.5018,-3.5036,-3.5053,-3.4837,-3.4836,-3.4835,0,0,-3.4589,-3.4628,-3.4622,-3.4693,-3.4701,-3.4684,-3.4704,-3.4683,-3.4695,-3.47,-3.4699,-3.4712,-3.4745,-3.4768,-3.4798,-3.4885,-3.4885,-3.4926,-3.4941,-3.4952,-3.4963,-3.5008,-3.5026,-3.4832,-3.4832,-3.4831,0,0,-3.4562,-3.4557,-3.4532,-3.4613,-3.4626,-3.4624,-3.4669,-3.4638,-3.4663,-3.4655,-3.4623,-3.4625,-3.4696,-3.4697,-3.465,-3.4777,-3.4718,-3.4728,-3.4774,-3.4791,-3.4805,-3.4804,-3.4581,0,0,0,0,0,-3.448,-3.4558,-3.4535,-3.4545,-3.4589,-3.4637,-3.4642,-3.4617,-3.4576,-3.4611,-3.4605,-3.4568,-3.4665,-3.4623,-3.4634,-3.4687,-3.4784,-3.4793,-3.4801,-3.4879,-3.4898,-3.4914,0,0,0,0,0,0,-3.4484,-3.4497,-3.4533,-3.4535,-3.4545,-3.4634,-3.4557,-3.4553,-3.4571,-3.4563,-3.457,-3.4568,-3.4548,-3.4616,-3.4626,-3.4677,-3.4578,-3.4788,-3.4795,-3.4801,-3.4886,-3.4901,-3.4914,0,0,0,0,0,-3.4487,-3.4497,-3.4574,-3.4534,-3.4542,-3.4528,-3.4554,-3.455,-3.4564,-3.4555,-3.4551,-3.4543,-3.455,-3.4557,-3.4622,-3.4673,-3.4571,-3.4574,-3.4792,-3.4798,-3.4803,-3.4893,0,0,0,0,0,0,-3.4489,-3.4493,-3.4575,-3.4577,-3.4503,-3.4522,-3.4524,-3.4548,-3.4553,-3.4551,-3.4526,-3.452,-3.4553,-3.4557,-3.4563,-3.4673,-3.4565,-3.4569,-3.4571,-3.4797,-3.4801,-3.4805,0,0,0,0,0,0,-3.4488,-3.4495,-3.4576,-3.4539,-3.4536,-3.4517,-3.4519,-3.4571,-3.4554,-3.4524,-3.4519,-3.4523,-3.4544,-3.4558,-3.4562,-3.4644,-3.456,-3.4564,-3.4567,-3.4568,-3.48,-3.4804,0,0,0,0,0,0,-3.449,-3.4497,-3.4538,-3.4536,-3.4533,-3.4549,-3.4562,-3.4609,-3.4522,-3.4525,-3.4513,-3.4509,-3.4546,-3.455,-3.4562,-3.4642,-3.4643,-3.456,-3.4563,-3.4565,-3.4566,0,0,0,0,0,0,0,-3.4492,-3.4456,-3.4566,-3.4534,-3.4531,-3.4592,-3.4592,-3.4593,-3.4521,-3.4518,-3.4514,-3.4511,-3.4539,-3.4543,-3.4547,-3.4641,0,0,-3.456,-3.4562,0,0,0,0,0,0,0,0,-3.4452,-3.4455,-3.4566,-3.4566,-3.4567,-3.4592,-3.4592,-3.4593,-3.452,-3.4518,-3.4515,-3.4512,-3.454,-3.4543,-3.4547,0,0,0,0,0,0,0,0,0,0,0,0,0,0,0,-3.4566,-3.4566,0,-3.4592,-3.4592,-3.4593,-3.452,-3.4518,-3.4516,-3.4513,-3.4541,-3.4543,-3.4546,0,0,0,0,0,0,0,0,0,0,0,0,0,0,0,0,0,0,0,0,0,0,0,0,0,0,0,0,0,0,0,0,0,0,0,0,0,0,0,0,0,0,0,0,0,0,0,0,0,0,0,0,0,0,0,0,0,0,0,0,0,0,0,0,0,0,0,0,0]}],[{"header":{"parameterUnit":"kt","parameterCategory":2,"dx":1,"dy":1,"la1":30.253999710083008,"la2":30.299108505249023,"lo1":-89.0895004272461,"lo2":-89.04439544677734,"nx":28,"ny":28,"refTime":"2022-09-27T21:00:00:Z","depth":0,"parameterNumber":2,"parameterNumberName":"V-component_of_WINDS"},"data":[-14.841,-14.855,-14.8551,-14.8709,-14.8735,-14.8842,-14.8879,-14.8927,-14.8963,-14.9087,-14.9157,-14.9167,-14.9199,-14.9278,-14.9351,-14.9352,-14.9383,-14.9434,-14.9427,-14.9203,-14.9171,-14.9141,-14.9109,-14.9441,-14.9442,-14.9659,-14.9661,-14.9663,-14.825,-14.8279,-14.8363,-14.8444,-14.8515,-14.8466,-14.8524,-14.8585,-14.868,-14.8725,-14.8794,-14.89,-14.8982,-14.8996,-14.9073,-14.9134,-14.9113,-14.9155,-14.9149,-14.9155,-14.8915,-14.8882,-14.9171,-14.9171,-14.9171,-14.9171,-14.9171,-14.9171,-14.7957,-14.8041,-14.809,-14.818,-14.822,-14.8273,-14.835,-14.8362,-14.844,-14.8524,-14.8504,-14.8609,-14.865,-14.8739,-14.8767,-14.8846,-14.8797,-14.8841,-14.8852,-14.8863,-14.8877,-14.8565,-14.8858,-14.8857,-14.8857,-14.8856,-14.8855,0,-14.7743,-14.7738,-14.7817,-14.7897,-14.7962,-14.8022,-14.8076,-14.8123,-14.8104,-14.8168,-14.8261,-14.8313,-14.8415,-14.8498,-14.8568,-14.8587,-14.8537,-14.8531,-14.856,-14.8572,-14.8575,-14.8575,-14.8185,-14.8521,-14.8518,-14.8516,-14.8515,-14.8513,-14.7448,-14.7544,-14.7593,-14.7649,-14.7678,-14.7767,-14.7819,-14.7795,-14.785,-14.7909,-14.7981,-14.8066,-14.8132,-14.8276,-14.8281,-14.8355,-14.833,-14.846,-14.8341,-14.835,-14.8332,-14.8327,-14.8336,-14.8483,-14.8487,-14.849,-14.8492,0,-14.7281,-14.7279,-14.7427,-14.7463,-14.7475,-14.7577,-14.7606,-14.7685,-14.7685,-14.7793,-14.7817,-14.7815,-14.7904,-14.7888,-14.7984,-14.7973,-14.8135,-14.8109,-14.8122,-14.8115,-14.8229,-14.8219,-14.8601,-14.865,-14.8306,-14.8309,-14.8312,0,-14.7027,-14.7154,-14.7141,-14.7227,-14.7367,-14.7339,-14.7476,-14.7489,-14.7525,-14.761,-14.7552,-14.7633,-14.7599,-14.7676,-14.7659,-14.7789,-14.7806,-14.7804,-14.7798,-14.781,-14.781,-14.7835,-14.7818,-14.778,-14.7778,-14.7777,-14.7775,0,-14.6767,-14.6907,-14.7047,-14.7078,-14.7127,-14.7192,-14.7214,-14.7253,-14.7302,-14.7363,-14.7394,-14.7465,-14.7504,-14.7559,-14.7537,-14.7457,-14.7695,-14.7579,-14.7692,-14.7693,-14.7744,-14.7741,-14.8086,-14.7773,-14.7772,-14.7771,-14.7771,0,-14.6559,-14.6627,-14.6829,-14.6869,-14.6906,-14.6996,-14.7067,-14.7141,-14.7184,-14.718,-14.7227,-14.7185,-14.7297,-14.7184,-14.7337,-14.7239,-14.728,-14.7288,-14.7296,-14.7303,-14.7177,-14.7374,-14.7705,-14.7738,-14.7313,-14.7309,-14.7306,0,-14.6263,-14.6466,-14.6443,-14.6635,-14.6726,-14.6656,-14.6756,-14.6796,-14.6799,-14.6874,-14.6874,-14.6959,-14.6872,-14.6895,-14.6973,-14.6976,-14.7103,-14.6958,-14.7062,-14.7067,-14.7054,-14.7359,-14.7412,-14.7634,-14.7257,-14.7262,-14.7266,0,-14.6031,-14.6091,-14.6127,-14.616,-14.6211,-14.6285,-14.6399,-14.6478,-14.6529,-14.6579,-14.6673,-14.679,-14.6729,-14.6767,-14.6739,-14.6821,-14.7016,-14.6743,-14.6743,-14.6793,-14.723,-14.7281,-14.7318,-14.6979,-14.6985,-14.6989,-14.7227,0,-14.572,-14.5819,-14.5916,-14.599,-14.6045,-14.6163,-14.6148,-14.6207,-14.6177,-14.6176,-14.6312,-14.6336,-14.6412,-14.6449,-14.6417,-14.6611,-14.6575,-14.6508,-14.6395,-14.6595,-14.6673,-14.6704,-14.6281,-14.6277,-14.6275,-14.6272,0,0,-14.5436,-14.5578,-14.5547,-14.5658,-14.5702,-14.5626,-14.5754,-14.5787,-14.5855,-14.5887,-14.5824,-14.5993,-14.6015,-14.618,-14.6241,-14.6271,-14.6304,-14.6233,-14.65,-14.6525,-14.6549,-14.6632,-14.6666,-14.6267,-14.6266,-14.6265,-14.6264,0,-14.5319,-14.535,-14.5477,-14.5512,-14.5561,-14.5554,-14.5585,-14.5619,-14.5623,-14.5756,-14.5688,-14.5766,-14.59,-14.5932,-14.5966,-14.6214,-14.6156,-14.6238,-14.6378,-14.6471,-14.6501,-14.6527,-14.6615,-14.6647,-14.6257,-14.6257,-14.6258,0,-14.5088,-14.5115,-14.5175,-14.5273,-14.5303,-14.5397,-14.5277,-14.538,-14.5448,-14.5353,-14.5485,-14.5496,-14.5537,-14.5696,-14.5766,-14.571,-14.6022,-14.5919,-14.5937,-14.5943,-14.6032,-14.6068,-14.6099,-14.5685,-14.5683,-14.5681,0,0,-14.4988,-14.508,-14.5098,-14.5246,-14.5271,-14.5262,-14.5308,-14.5282,-14.5323,-14.5339,-14.5351,-14.5391,-14.5468,-14.5519,-14.559,-14.5767,-14.5771,-14.585,-14.5877,-14.5899,-14.5918,-14.6012,-14.6047,-14.5674,-14.5674,-14.5673,0,0,-14.4938,-14.4967,-14.4929,-14.51,-14.5143,-14.5168,-14.5258,-14.521,-14.5273,-14.5257,-14.5212,-14.522,-14.5368,-14.538,-14.5287,-14.5549,-14.5438,-14.5459,-14.5535,-14.5569,-14.5596,-14.5589,-14.5162,0,0,0,0,0,-14.481,-14.4964,-14.493,-14.4956,-14.5076,-14.5188,-14.5203,-14.5172,-14.5095,-14.5167,-14.5169,-14.5103,-14.5321,-14.5237,-14.5262,-14.5365,-14.5581,-14.5598,-14.5613,-14.5753,-14.5788,-14.5818,0,0,0,0,0,0,-14.482,-14.4852,-14.4925,-14.4958,-14.4984,-14.5182,-14.5045,-14.5041,-14.5086,-14.5072,-14.5105,-14.5104,-14.5077,-14.5222,-14.5245,-14.5344,-14.5155,-14.5588,-14.5602,-14.5614,-14.5765,-14.5794,-14.5819,0,0,0,0,0,-14.4828,-14.4853,-14.5056,-14.4955,-14.4978,-14.4974,-14.5039,-14.5034,-14.5068,-14.5072,-14.5069,-14.5041,-14.5081,-14.5098,-14.5235,-14.5334,-14.5139,-14.5147,-14.5597,-14.5608,-14.5618,-14.5779,0,0,0,0,0,0,-14.4833,-14.4849,-14.506,-14.5065,-14.4894,-14.4963,-14.4972,-14.5029,-14.5064,-14.5063,-14.5004,-14.4993,-14.5086,-14.5098,-14.5111,-14.5333,-14.5126,-14.5135,-14.514,-14.5605,-14.5614,-14.5621,0,0,0,0,0,0,-14.4834,-14.4854,-14.5062,-14.4988,-14.4985,-14.4952,-14.4961,-14.5071,-14.5065,-14.4994,-14.4985,-14.4999,-14.5064,-14.5099,-14.5108,-14.5283,-14.5116,-14.5124,-14.513,-14.5134,-14.5612,-14.5619,0,0,0,0,0,0,-14.4842,-14.4859,-14.4986,-14.4984,-14.4981,-14.5043,-14.5048,-14.5172,-14.5005,-14.4993,-14.4989,-14.4981,-14.5067,-14.5076,-14.5107,-14.5278,-14.5281,-14.5116,-14.5122,-14.5126,-14.5128,0,0,0,0,0,0,0,-14.4848,-14.4744,-14.5026,-14.498,-14.4977,-14.5119,-14.512,-14.5122,-14.5004,-14.4997,-14.4991,-14.4985,-14.5068,-14.5077,-14.5087,-14.5274,0,0,-14.5115,-14.5119,0,0,0,0,0,0,0,0,-14.4736,-14.4742,-14.5026,-14.5027,-14.5029,-14.5119,-14.512,-14.5122,-14.5002,-14.4997,-14.4992,-14.4987,-14.5071,-14.5078,-14.5086,0,0,0,0,0,0,0,0,0,0,0,0,0,0,0,-14.5026,-14.5027,0,-14.5119,-14.512,-14.5121,-14.5002,-14.4997,-14.4993,-14.4989,-14.5073,-14.5079,-14.5085,0,0,0,0,0,0,0,0,0,0,0,0,0,0,0,0,0,0,0,0,0,0,0,0,0,0,0,0,0,0,0,0,0,0,0,0,0,0,0,0,0,0,0,0,0,0,0,0,0,0,0,0,0,0,0,0,0,0,0,0,0,0,0,0,0,0,0,0,0]}]]]